Location: Łódź
(51.7951°N, 19.4477°E)
Time: 14:48:23
(UTC+01:00)

ISS - Pass Details

Date: 02 February 2019
Orbit: 403 x 411 km, 51.6° (Epoch: 16 February)

Event Time Altitude Azimuth Distance (km) Brightness Sun altitude
Rises 19:41:53 0° 283° (WNW) 2,341 1.3 -29.4°
Reaches altitude 10° 19:44:05 10° 274° (W) 1,479 -0.1 -29.7°
Enters shadow 19:44:44 14° 269° (W) 1,239 -0.6 -29.8°
